#timestamp,LO_Frequency,Hit,StdDev 
1711832415.2,286047008.0,Y
1711832435.9,286046999.7,P
1711832455.7,286047001.5,N
1711832475.6,286047006.9,N
1711832495.4,286047012.0,Y
1711832515.2,286047010.2,P
1711832535.1,286047010.4,P
1711832536.0,286047010.4,P
1711832555.8,286047010.8,Y
1711832575.7,286046998.4,P
1711832595.5,286046999.1,N
1711832615.3,286047002.8,N
1711832635.2,286047001.3,N
1711832655.0,286047006.9,N
1711832655.9,286047006.9,N
1711832675.8,286047010.2,N
1711832695.6,286047011.1,N
1711832715.4,286047012.7,N
1711832735.3,286047015.4,Y
1711832755.1,286047009.7,P
1711832775.8,286047012.5,P
1711832795.7,286047012.6,P
1711832815.5,286047013.2,Y
1711832835.4,286047000.0,P
1711832855.2,286046998.5,N
1711832875.0,286047000.8,N
1711832875.9,286047000.8,N
1711832895.8,286047000.1,N
1711832915.6,286047002.0,N
1711832935.5,286047003.5,N
1711832955.3,286047003.6,N
1711832975.1,286047001.4,N
1711832995.9,286047003.6,N
1711833015.7,286047003.5,N
1711833035.5,286047003.2,N
1711833055.4,286047003.2,N
1711833075.2,286047005.2,N
1711833095.0,286047005.2,N
1711833096.0,286047005.2,N
1711833115.8,286047004.1,N
1711833135.6,286047005.7,N
1711833155.5,286047004.8,N
1711833175.3,286047007.3,N
1711833195.1,286047012.0,Y
1711833215.9,286047007.3,P
1711833235.7,286047004.5,N
1711833255.6,286047012.3,P
1711833275.4,286047011.3,Y
1711833295.2,286047005.9,P
1711833315.1,286047007.2,P
1711833316.0,286047007.2,P
1711833335.8,286047007.3,Y
1711833355.6,286047000.7,P
1711833375.5,286046998.8,N
1711833395.3,286046996.9,N
1711833415.2,286046996.1,N
1711833435.9,286046994.0,N
1711833455.7,286046995.6,N
1711833475.6,286046993.7,N
1711833495.4,286046994.4,N
1711833515.2,286046993.3,N
1711833535.1,286046992.8,N
1711833536.0,286046992.8,N
1711833555.8,286046996.1,N
1711833575.7,286046996.1,N
1711833595.5,286046994.9,N
1711833615.3,286046997.0,N
1711833635.2,286047001.3,N
1711833655.0,286047003.4,N
1711833655.9,286047003.4,N
1711833675.8,286047002.5,N
1711833695.6,286047002.7,N
1711833715.4,286047000.1,N
1711833735.3,286046999.8,N
1711833755.1,286047004.4,N
1711833775.9,286047000.1,N
1711833795.7,286047002.5,N
1711833815.5,286047001.2,N
1711833835.4,286046996.9,N
1711833855.2,286046997.9,N
1711833875.0,286046996.8,N
1711833876.0,286046996.8,N
1711833895.8,286046998.8,N
1711833915.6,286046999.8,N
1711833935.5,286047001.8,N
1711833955.3,286047002.0,N
1711833975.1,286047002.7,N
1711833995.9,286047000.5,N
1711834015.7,286047001.8,N
1711834035.6,286047003.0,N
1711834055.4,286047003.2,N
1711834075.2,286047002.9,N
1711834095.1,286047005.7,N
1711834096.0,286047005.7,N
1711834115.8,286047004.7,N
1711834135.6,286047005.6,N
1711834155.5,286047004.1,N
1711834175.3,286047004.1,N
1711834195.2,286047004.4,N
1711834215.9,286047005.8,N
1711834235.7,286047003.4,N
1711834255.6,286047006.1,N
1711834275.4,286047013.7,Y
1711834295.2,286047012.2,P
1711834315.1,286047011.9,N
1711834316.0,286047011.9,N
1711834335.8,286047011.8,N
1711834355.7,286047009.5,N
1711834375.5,286047010.3,N
1711834395.3,286047011.7,Y
1711834415.2,286047002.3,P
1711834435.0,286047002.7,N
1711834435.9,286047002.7,N
1711834455.8,286047000.2,N
1711834475.6,286047005.1,N
1711834495.4,286047003.1,N
1711834515.3,286047004.2,N
1711834535.1,286047006.0,N
1711834555.8,286047005.0,N
1711834575.7,286047005.6,N
1711834595.5,286047007.0,N
1711834615.4,286047007.9,Y
1711834635.2,286047003.8,P
1711834655.0,286047003.0,P
1711834655.9,286047003.0,P
1711834675.8,286047003.9,Y
1711834695.6,286047000.5,P
1711834715.4,286047001.2,N
1711834735.3,286047000.7,N
1711834755.1,286047001.8,N
1711834775.9,286047001.7,N
1711834795.7,286047004.0,Y
1711834815.5,286047002.6,P
1711834835.4,286047001.9,P
1711834855.2,286047005.3,P
1711834875.1,286047007.4,Y
1711834876.0,286047007.4,P
1711834895.8,286047003.2,N
1711834915.6,286047007.2,P
1711834935.5,286047005.7,N
1711834955.3,286047007.0,Y
1711834975.1,286047005.9,P
1711834995.9,286047005.1,P
1711835015.7,286047006.8,P
1711835035.6,286047009.1,Y
1711835055.4,286047002.1,P
1711835075.2,286047001.3,N
1711835095.1,286047002.1,N
1711835096.0,286047002.1,N
1711835115.8,286047003.6,N
1711835135.7,286047006.5,Y
1711835155.5,286047009.0,P
1711835175.3,286047010.4,P
1711835195.2,286047008.6,N
1711835215.9,286047006.9,N
1711835235.7,286047008.6,Y
1711835255.6,286047002.2,P
1711835275.4,286047007.6,N
1711835295.3,286047002.9,N
1711835315.1,286047005.9,N
1711835316.0,286047005.9,N
1711835335.8,286046999.8,N
1711835355.7,286046999.9,N
1711835375.5,286046998.8,N
1711835395.3,286046998.4,N
1711835415.2,286047001.2,N
1711835435.0,286047001.2,N
1711835435.9,286047001.2,N
1711835455.8,286046998.7,N
1711835475.6,286046997.7,N
1711835495.4,286047000.4,N
1711835515.3,286047000.3,N
1711835535.1,286047001.8,N
1711835555.8,286047004.4,N
1711835575.7,286047001.9,N
1711835595.5,286047005.0,N
1711835615.4,286047010.4,Y
1711835635.2,286047006.5,P
1711835655.0,286047008.9,P
1711835655.9,286047008.9,P
1711835675.8,286047008.2,N
1711835695.6,286047012.3,Y
1711835715.5,286047000.9,P
1711835735.3,286047002.8,N
1711835755.1,286047002.9,N
1711835775.9,286047009.0,Y
1711835795.7,286047005.4,P
1711835815.5,286047005.0,P
1711835835.4,286047002.9,P
1711835855.2,286047007.2,Y
1711835875.1,286047000.0,P
1711835876.0,286047000.0,N
1711835895.8,286046998.1,N
1711835915.6,286046999.5,N
1711835935.5,286046999.9,N
1711835955.3,286047004.2,N
1711835975.1,286047001.8,N
1711835995.9,286047002.5,N
